If you wish to contribute or participate in the discussions about articles you are invited to join SKYbrary as a registered user

 Actions

Almería International Airport

From SKYbrary Wiki

LEAM
Airport
ICAO: LEAM – IATA: LEI
Summary
Name Almería International Airport
Region Europe
Territory Spain ES.gif
Location , Andalucia
Serving Almeria
Elevation 21.336 m
70 ft
70 ft21.336 m
Type medium airport
Coordinates 36° 50' 38.1696", -2° 22' 12.3492"
Close to Alboran Sea
Runways
Designator Length Width Surface ROPS
8/26 3200 m10,498.688 ft 45 m147.638 ft ASP no/no


METAR
Observation LEAM 250030Z AUTO 33007KT 9999 OVC087 10/05 Q1011
Station Almeria / Aeropuerto
Date/Time 25 February 2018 00:30:00
Wind direction 330°
Wind speed 07 kts
Lowest cloud amount overcast
Temperature 10°C
Dew point 5°C
Humidity 71%
QNH 1011 hPa
Weather condition n/a